Location: Morisset
(33.1080°S, 151.4871°E)
Time: 08:20:09
(UTC+00:00)

Cosmos 1484 Rocket - Pass Details

Date: 29 October 2020
Orbit: 504 x 560 km, 97.4° (Epoch: 28 November)

Event Time Altitude Azimuth Distance (km) Brightness Sun altitude
Rises 18:20:59 0° 351° (N) 2,597 5.9 -7.9°
Reaches altitude 10° 18:23:14 10° 339° (NNW) 1,720 5.0 -7.5°
Maximum altitude 18:26:30 29° 277° (W) 959 3.5 -6.8°
Drops below altitude 10° 18:29:49 10° 215° (SW) 1,748 5.2 -6.2°
Sets 18:32:08 0° 204° (SSW) 2,648 6.3 -5.7°
